SCP
0 0 0 0 0 0 0 0 0 0 0 0 0 1 1 1 1 1 1 1 1 1 2 3 3 3 4 4 4 4 4 4 4 4 4 3 2 2 2 2 2 3 3 3
0 0 0 0 0 0 0 0 0 0 0 0 0 1 1 1 1 1 1 1 1 2 2 3 3 3 3 4 4 4 4 4 4 4 4 3 3 2 2 2 2 2 2 2
0 0 0 0 0 0 0 0 0 0 1 1 1 1 1 1 1 1 1 1 1 2 2 3 3 3 3 3 4 4 4 4 4 4 4 3 3 2 2 2 2 2 2 2
0 0 0 0 0 0 0 0 0 0 1 1 1 1 1 1 1 1 1 1 1 2 2 2 2 3 3 3 3 3 4 4 4 3 3 3 2 2 2 2 3 2 2 2
0 0 0 0 0 0 0 0 0 0 1 0 1 1 1 1 1 1 1 1 2 2 2 2 2 2 3 3 3 3 4 5 4 4 3 3 2 2 1 2 2 2 1 1
0 0 0 0 0 0 0 0 0 0 1 0 0 1 1 1 1 1 1 1 2 2 2 2 2 2 3 2 2 3 4 5 6 4 3 3 2 2 1 1 1 1 1 1
0 0 0 0 0 0 0 0 0 1 1 0 0 0 1 1 1 1 1 1 1 1 2 2 2 2 2 2 2 3 4 6 6 5 4 3 3 2 2 2 2 2 1 1
0 0 0 0 0 0 0 0 0 0 0 0 0 1 1 1 1 1 1 1 1 1 2 2 2 2 2 2 2 3 5 6 6 5 4 4 4 3 3 3 3 3 2 2
0 0 0 0 0 0 0 0 0 0 0 0 0 1 1 1 1 1 1 1 1 2 2 2 2 2 2 2 2 3 4 5 5 5 5 5 5 5 4 4 4 3 3 3
0 0 0 0 0 0 0 0 0 0 0 0 0 0 1 1 1 1 1 1 1 2 2 2 2 2 2 2 2 2 3 4 4 4 5 5 6 5 5 5 4 4 4 4
0 0 0 0 0 0 0 0 0 0 0 0 0 0 1 1 1 1 1 1 1 1 1 2 2 2 2 1 2 2 3 3 4 4 5 6 6 6 6 5 4 4 4 4
0 0 0 0 0 0 0 0 0 0 0 0 0 0 1 1 1 1 1 1 1 1 1 2 2 2 2 2 2 2 2 3 4 4 6 7 8 8 6 4 3 2 3 3
1 1 0 0 0 0 0 0 0 0 0 0 0 1 1 1 1 1 1 1 1 1 1 2 2 2 2 2 2 2 3 3 4 5 7 8 9 8 5 3 2 2 3 4
1 1 1 0 0 0 0 0 0 0 0 0 0 1 1 1 1 1 1 1 1 1 1 1 2 2 2 3 3 3 3 4 5 7 7 8 8 7 5 4 4 5 6 6
1 1 1 1 0 0 0 0 0 0 0 0 1 1 1 1 1 1 1 1 1 1 1 1 2 3 4 4 4 4 4 6 7 7 6 6 6 7 7 7 8 9 7 6
1 1 1 1 1 1 1 0 0 0 0 1 1 1 1 1 1 1 1 1 1 1 1 1 2 3 5 6 5 5 5 6 6 6 5 5 6 8 9 9 9 8 6 4
1 1 1 1 0 0 1 1 0 0 1 1 1 1 1 1 1 1 1 1 1 1 1 1 2 3 4 5 5 5 5 5 5 5 5 5 6 7 7 6 5 4 3 2
1 1 1 0 0 0 0 1 1 1 1 1 1 1 1 1 1 1 1 1 1 1 1 1 2 2 3 4 4 4 4 4 4 4 3 3 4 4 4 3 3 2 2 2
1 1 1 1 0 0 0 1 1 1 1 1 1 1 1 1 1 1 1 1 1 1 1 1 1 2 3 3 3 3 3 3 3 3 3 3 3 3 3 2 2 2 2 2
1 1 1 1 0 0 1 1 1 1 1 1 1 1 1 1 1 1 1 1 1 1 1 1 1 1 2 3 4 4 3 3 3 3 3 3 3 3 3 3 2 3 3 3
1 1 1 1 1 1 1 1 1 1 1 1 1 1 1 1 1 1 1 1 1 1 1 1 1 1 2 3 3 3 3 3 3 3 4 4 4 4 3 3 3 3 4 4
1 1 1 1 1 1 1 1 1 1 1 1 1 1 1 1 1 1 1 1 1 1 2 2 1 1 2 2 3 3 3 3 3 4 4 5 4 4 3 3 3 3 3 3
2 2 2 2 2 1 1 1 1 1 1 1 1 1 1 1 1 1 1 1 1 2 2 2 2 2 3 3 4 4 4 3 3 4 5 5 5 4 3 3 3 3 2 2
2 2 2 2 1 1 1 1 1 1 1 1 1 1 1 1 1 1 1 1 2 2 2 2 2 3 4 5 5 5 4 4 4 5 6 6 5 4 3 3 2 2 2 2
2 2 2 2 1 1 1 1 1 1 0 1 1 1 1 1 1 1 1 1 2 2 1 2 3 4 5 5 5 4 3 3 4 5 7 7 5 4 3 2 1 1 1 1
1 1 1 1 1 1 1 1 1 1 1 1 1 1 1 1 1 1 1 1 1 1 1 2 3 4 4 4 4 3 3 2 3 5 7 7 5 3 2 1 1 1 1 1
Wind_Speed
10 11 10 9 9 9 8 9 9 7 5 7 9 9 7 6 7 7 6 4 4 4 4 4 5 5 6 6 6 6 6 5 5 4 4 4 3 3 3 2 3 3 3 3
10 13 10 7 7 9 10 11 9 6 4 7 8 10 8 7 7 6 6 5 6 6 6 5 5 5 6 6 6 6 6 6 6 4 3 2 3 2 2 2 3 3 3 2
13 6 5 8 10 11 11 11 9 7 6 8 10 10 7 5 4 4 5 6 6 6 6 6 6 6 6 6 6 5 5 6 5 5 4 4 3 3 3 3 3 3 2 2
12 8 8 10 11 11 10 8 8 9 9 7 8 8 5 5 5 5 5 6 6 6 6 7 7 6 6 6 6 6 5 5 5 5 4 5 4 3 3 2 2 3 3 2
9 8 9 11 9 9 8 6 8 10 11 10 8 10 5 4 4 4 4 4 4 5 6 7 7 6 6 5 6 6 6 5 5 4 4 4 3 3 3 3 3 3 3 2
10 7 8 8 7 7 6 7 9 10 10 11 7 8 5 2 2 2 3 3 3 5 6 7 7 6 6 6 6 6 7 5 5 4 4 4 4 4 4 3 3 3 2 2
11 10 9 8 9 9 9 8 7 8 8 6 3 7 4 1 0 2 2 3 3 5 6 7 8 8 7 7 7 7 7 6 5 5 4 4 4 4 4 3 3 3 2 2
10 9 9 9 9 7 9 10 8 7 7 5 4 6 1 2 1 0 1 2 3 5 5 6 6 7 7 7 7 7 7 6 6 5 5 4 4 4 3 3 2 3 2 2
7 6 7 7 8 9 9 9 8 10 9 9 5 4 4 3 2 2 2 2 3 4 6 6 6 6 6 6 6 7 7 6 6 6 5 4 4 3 3 4 3 2 2 2
6 6 7 7 8 8 8 7 6 8 7 8 7 6 3 3 2 2 2 3 3 4 5 6 6 6 6 5 6 6 6 6 6 6 5 4 4 4 4 4 4 3 3 2
7 7 7 9 10 9 9 9 8 8 7 8 7 2 2 1 0 1 2 2 3 4 5 6 6 6 6 5 6 7 6 6 6 6 5 4 4 4 4 3 3 3 3 2
6 6 7 8 5 6 9 9 9 8 7 8 8 2 3 2 1 0 1 2 2 4 5 6 7 6 6 6 6 7 6 6 6 6 5 5 4 4 3 3 3 3 3 2
5 6 7 8 8 9 9 8 9 9 7 7 8 2 4 2 2 2 2 2 3 4 5 5 6 6 5 5 5 6 6 5 5 6 5 5 4 4 3 3 3 3 3 3
5 7 9 8 4 5 8 8 9 10 8 8 8 4 1 1 1 1 1 2 2 4 5 5 5 5 5 5 5 5 5 6 6 5 5 5 4 4 3 3 3 3 3 2
6 9 9 8 6 7 8 8 9 10 10 9 6 5 3 1 1 1 1 2 3 4 5 6 5 5 5 5 5 5 5 5 5 5 5 5 5 4 4 3 3 3 3 2
5 7 8 9 7 7 8 9 9 9 10 9 7 5 1 1 0 1 1 2 2 3 4 5 5 5 6 6 5 5 4 4 5 5 4 4 5 5 4 3 3 3 2 2
6 7 8 8 7 8 9 7 8 8 7 7 7 3 2 1 1 1 1 1 1 2 3 4 4 5 5 5 5 5 5 5 5 5 4 4 5 5 4 4 3 3 2 2
7 8 7 7 7 10 2 1 3 5 4 4 3 1 1 1 1 1 1 1 1 1 2 3 3 4 4 4 5 5 5 5 5 5 4 4 4 5 4 4 3 3 2 2
7 8 7 7 8 6 4 3 3 4 3 1 1 1 0 1 2 3 3 2 1 0 1 2 3 3 4 4 5 5 5 5 5 5 5 4 4 4 4 4 3 2 2 3
6 8 8 8 8 5 3 2 1 4 4 3 2 1 1 1 3 2 4 3 2 1 1 2 2 3 3 4 5 5 5 5 5 5 5 5 5 4 4 3 3 2 2 3
6 7 9 9 7 2 5 1 3 6 3 4 3 2 2 2 3 3 3 3 2 2 1 2 2 2 3 3 5 5 5 5 5 4 5 5 5 4 4 3 3 3 3 2
3 4 5 6 6 2 5 1 1 4 4 2 2 2 2 2 2 1 2 2 1 1 1 1 2 2 2 3 4 5 5 4 4 5 5 4 4 4 3 3 3 3 3 3
2 4 3 3 3 5 4 4 4 2 2 2 1 1 1 1 2 1 1 1 1 1 1 1 2 2 2 3 4 4 3 4 4 5 5 4 4 4 3 4 4 4 4 3
1 2 1 1 3 3 4 4 3 2 2 1 1 1 1 1 1 1 1 1 1 1 1 1 2 2 2 3 3 3 3 4 4 5 5 5 5 5 5 4 4 3 3 3
3 2 1 2 2 1 2 3 3 2 2 2 2 2 2 2 1 1 1 1 1 1 0 1 1 1 2 2 2 2 3 3 4 4 4 5 5 5 4 4 2 3 2 2
2 2 2 1 2 2 2 3 3 3 3 2 2 2 2 2 2 1 0 0 0 0 1 1 1 1 1 1 2 2 2 3 3 4 4 4 4 3 4 4 3 1 2 2
Wind_Direction
196 220 224 225 235 261 263 260 261 262 263 256 260 269 267 253 245 246 239 217 210 192 171 159 164 165 162 165 174 180 179 171 177 175 179 170 170 169 161 165 159 183 188 182
204 224 230 232 232 242 248 252 254 250 253 264 266 269 262 249 245 250 247 216 200 187 162 156 161 162 164 167 172 176 176 174 182 166 172 170 157 169 159 161 154 171 173 184
221 221 199 220 224 236 243 252 264 275 272 252 261 253 237 223 227 235 235 226 200 184 170 165 164 165 163 164 173 177 173 171 173 165 167 155 153 168 155 157 154 157 165 173
231 228 218 226 231 238 246 251 266 265 262 259 258 270 237 217 214 220 227 223 206 187 173 168 168 166 164 163 167 168 162 157 156 168 175 177 175 169 155 159 141 141 142 147
221 213 220 231 233 236 251 261 256 260 263 265 245 261 250 206 234 224 216 216 203 189 177 172 169 165 160 162 163 159 151 148 156 171 170 180 171 158 146 146 135 141 127 129
238 221 229 240 236 231 240 242 243 244 247 248 243 256 265 227 261 240 198 190 190 189 173 168 161 153 153 159 157 153 146 147 158 163 162 176 160 157 155 161 149 161 140 142
219 212 211 227 227 209 224 239 243 234 230 244 230 254 263 40 359 265 215 188 185 185 171 166 165 160 158 159 157 154 151 153 160 158 158 168 163 165 168 170 158 171 154 155
223 212 195 208 226 230 222 237 252 265 263 267 229 246 232 108 80 210 184 167 169 174 168 167 162 161 158 158 160 159 157 158 160 159 160 165 168 172 162 168 163 160 160 143
230 218 179 201 219 234 224 231 257 268 266 266 240 224 193 170 157 158 152 152 155 163 167 165 157 157 156 160 161 162 159 156 159 161 162 163 166 167 156 158 172 160 155 153
243 237 199 187 205 214 245 242 238 250 260 262 251 239 228 181 206 186 181 168 157 155 161 159 156 154 155 161 163 159 155 157 160 160 164 157 158 165 168 173 163 159 160 158
233 235 203 195 213 214 208 219 236 248 256 267 269 256 57 140 288 210 193 181 167 160 158 154 149 148 150 153 156 154 154 158 162 160 156 152 155 156 165 167 160 156 153 160
212 241 232 218 213 238 232 233 231 244 247 254 271 274 66 69 65 117 148 151 149 152 147 147 148 147 149 153 154 154 158 163 164 160 155 155 157 155 159 152 148 148 149 165
191 221 228 209 199 205 222 225 234 244 251 252 260 245 101 94 101 101 108 120 130 141 143 146 147 150 151 152 153 157 161 161 159 156 154 148 155 156 159 152 150 150 154 168
229 234 244 253 254 215 217 221 230 240 246 252 256 267 229 122 87 73 88 126 138 143 147 152 154 156 155 156 157 162 167 162 160 159 157 151 155 160 164 155 152 158 161 165
236 238 242 252 252 235 233 230 228 237 250 258 260 269 286 329 345 50 89 121 137 148 157 160 160 159 166 161 163 167 168 165 163 165 164 158 157 164 167 159 156 154 164 180
231 245 239 240 234 232 235 233 232 236 244 246 251 260 322 39 111 116 121 137 151 155 163 163 162 163 169 167 168 166 168 169 166 170 170 162 166 164 161 162 163 161 173 193
226 231 239 240 223 236 236 234 228 227 239 246 252 251 120 135 93 112 139 143 138 146 158 169 174 175 174 173 173 174 175 171 172 174 174 169 173 166 165 171 171 177 179 188
241 237 241 241 226 233 187 158 230 218 229 250 258 246 204 195 158 133 119 109 133 132 157 168 178 180 178 174 176 179 177 175 176 176 178 176 179 174 177 180 181 189 192 196
228 230 236 233 231 226 174 181 218 224 203 358 307 305 154 136 156 134 90 55 32 47 167 172 179 181 175 172 171 177 183 182 186 185 185 184 187 181 182 181 183 191 205 216
193 224 235 227 233 231 121 84 279 230 193 60 10 36 51 237 220 108 46 19 30 37 111 146 168 172 170 169 170 179 184 186 195 196 192 184 189 189 191 189 199 204 219 231
195 206 226 232 229 176 47 346 221 225 85 48 26 32 29 360 354 17 14 20 35 44 96 135 156 165 167 170 177 186 188 196 203 205 201 191 190 193 193 188 196 212 225 232
262 233 220 236 230 146 31 67 42 38 45 59 47 69 53 21 16 34 25 22 28 18 132 149 160 154 165 177 190 195 199 204 203 207 205 193 194 203 187 190 204 213 219 217
336 345 335 352 47 60 45 48 45 53 61 57 31 33 39 10 6 11 14 360 352 337 178 172 172 159 172 188 197 207 204 206 205 206 207 201 199 202 203 205 208 211 212 223
80 335 254 131 97 80 68 55 47 39 36 37 31 12 344 336 337 347 344 339 341 343 198 183 184 180 181 195 197 200 199 204 212 214 208 203 203 205 202 215 221 224 223 227
334 304 247 159 96 78 78 44 27 13 5 2 11 3 327 321 340 6 342 343 355 14 111 176 186 181 185 190 206 207 198 204 215 220 217 214 213 206 209 214 236 251 244 249
330 320 311 357 25 325 5 7 2 359 1 358 359 9 355 340 342 345 334 158 120 121 142 146 193 205 194 203 215 221 215 213 217 223 223 222 221 209 213 209 205 166 246 180